Simultaneous Nadir Overpasses (SNOs) Predictions

Prediction of SNOs between GOES-17 and METOP-B Satellite Orbit:

Table of predicted SNOs for the next 14.0 days since TLE Epoch: 12/2/2023
Index Date Time (GOES-17) GOES-17 Lat,Lon METOP-B Lat,Lon Distance(km) Time Diff (sec)
1 12/03/2023 16:26:35 0.02,-104.67 0.01,-104.52 16.33 80
2 12/06/2023 04:22:12 -0.03,-104.64 0.09,-104.12 59.92 80
3 12/07/2023 16:41:01 0.03,-104.66 0.91,-108.68 457.28 80
4 12/08/2023 16:23:00 0.03,-104.67 -0.19,-103.68 112.41 80
5 12/10/2023 04:41:57 -0.03,-104.65 -0.84,-108.27 412.79 80
6 12/11/2023 04:18:36 -0.02,-104.64 0.27,-103.27 156.28 80
7 12/12/2023 16:37:25 0.02,-104.65 0.71,-107.83 361.95 80
8 12/13/2023 16:19:24 0.02,-104.65 -0.41,-102.83 207.48 80
9 12/15/2023 04:38:20 -0.03,-104.63 -0.65,-107.42 317.92 80
